Other Public Products
Issued by NWS Grand Forks, ND

Home | Current Version | Previous Version | Text Only | Print | Product List | Glossary Off
Versions: 1 2 3 4 5 6 7 8 9 10 11 12 13 14 15 16 17 18 19 20 21 22 23 24 25 26 27 28 29 30 31 32 33 34 35 36 37 38 39 40 41 42 43 44 45 46 47 48 49 50

000
FPUS83 KFGF 051031
OPUFGF
PRAIRIE TO PINES WEATHER ROUNDUP
NATIONAL WEATHER SERVICE EASTERN NORTH DAKOTA/GRAND FORKS ND
400 AM CST THU MAR 05 2015

 **SATELLITE DATA USED TO AUGMENT SKY COVER AT AUTOMATED STATIONS**
 *****  WEATHER ACROSS EASTERN NORTH DAKOTA  *****

CITY           SKY/WX    TMP DP  RH WIND       PRES   REMARKS
GRAND FORKS    CLEAR    -14 -19  79 S7        30.38F WCI -30
GRAND FORKS AF CLEAR    -13 -20  69 SW6       30.36F WCI -27
GRAND CITY NWS   N/A    -11 N/A N/A SW9         N/A  WCI -29
BUXTON           N/A    -11 -14  84 S5          N/A  WCI -23
DEVILS LAKE    PTCLDY   -11 -24  53 S3        30.26F
FARGO          PTCLDY    -9 -16  71 S7        30.41F WCI -24
WAHPETON ARPT  SUNNY     -9 -17  70 W6        30.42F WCI -23
$$

 *****  WEATHER ACROSS CENTRAL AND WESTERN NORTH DAKOTA  *****

CITY           SKY/WX    TMP DP  RH WIND       PRES   REMARKS
JAMESTOWN      PTCLDY   -10 -17  71 S6        30.30F WCI -23
BISMARCK       PTCLDY    -7 -12  79 E6        30.27F WCI -20
MINOT          PTCLDY    -1 -11  62 S10       30.17F WCI -17
MINOT AFB      PTCLDY    -4 -12  69 S12       30.16F WCI -22
GARRISON         N/A    -10 -15  78 SE6       30.18F WCI -23
WILLISTON      PTCLDY     1  -8  66 S3        30.12F
DICKINSON      PTCLDY     2  -5  72 S12       30.09F WCI -15
HETTINGER      PTCLDY     3  -6  66 S6        30.15F WCI  -8
$$

 *****  OTHER OBSERVATIONS NORTHEAST NORTH DAKOTA  *****

CITY           SKY/WX    TMP DP  RH WIND       PRES   REMARKS
WALHALLA         N/A     -8 -17  65 SW6       30.29F WCI -21
LANGDON        NOT AVBL
CAVALIER       FAIR      -9 -17  70 S6        30.31F WCI -23
GRAFTON        NOT AVBL
CANDO          FAIR     -18 -22  83 S6        30.25F WCI -33
FORT TOTTEN      N/A    -13 -21  69 SE3       29.95S
ROLLA          FAIR      -9 -17  70 SW16      30.18F WCI -32
RUGBY          FAIR     -13 -18  77 S5        30.22F WCI -25
 ***** THE ABOVE OBSERVATIONS ARE NON NWS ARE NOT QUALITY
        CONTROLLED AND MAY MIS-REPORT RAIN FOR SNOW...
$$

 *****  OTHER OBSERVATIONS SOUTHEAST NORTH DAKOTA *****

CITY           SKY/WX    TMP DP  RH WIND       PRES   REMARKS
COOPERSTOWN    NOT AVBL
VALLEY CITY    FAIR     -13 -18  77 S6        30.33F WCI -27
OAKES            N/A     -6 N/A N/A SW8       30.36F WCI -21
GWINNER        SUNNY     -6 -13  71 SW12      30.38F WCI -24
SHEYENNE NWR     N/A    -14 -21  70 SW3       29.95S
BUFFALO        NOT AVBL
WYNDMERE       NOT AVBL
 ***** THE ABOVE OBSERVATIONS ARE NON NWS ARE NOT QUALITY
       CONTROLLED AND MAY MIS-REPORT RAIN FOR SNOW...
$$

  *****  WEATHER ACROSS NORTHERN MINNESOTA  *****

CITY           SKY/WX    TMP DP  RH WIND       PRES   REMARKS
FLAG ISLAND    CLEAR    -18 -24  76 S6        30.27F WCI -33
WARROAD        PTCLDY   -15 -20  76 SW6       30.30S WCI -29
ROSEAU         PTCLDY   -13 -18  77 SW9       30.31S WCI -31
HALLOCK        MOCLDY   -15 -22  70 S9        30.33F WCI -33
THF RVR FALLS  MOCLDY   -15 -24  64 S7        30.33F WCI -31
HALSTAD          N/A    -11 -17  77 SW6         N/A  WCI -25
FOSSTON        PTCLDY   -20 -26  76 SW6       30.34F WCI -36
BAUDETTE       CLEAR    -18 -23  77 SW6       30.29F WCI -33
WASKISH        CLEAR    -13 -17  84 CALM      30.32S
CROOKSTON      PTCLDY   -11 -17  77 SW8       30.39F WCI -28
$$
  *****  WEATHER ACROSS CENTRAL AND WEST MINNESOTA  *****

CITY           SKY/WX    TMP DP  RH WIND       PRES   REMARKS
BEMIDJI        CLEAR    -16 -20  80 SW3       30.31F
PARK RAPIDS    FAIR     -15 -21  74 CALM      30.33F
WADENA         CLEAR    -17 -20  83 W5        30.34F WCI -29
DETROIT LAKES  CLEAR    -11 -15  84 CALM      30.36S
MOORHEAD       FAIR      -8 -11  84 CALM      30.41F
FERGUS FALLS   CLEAR     -9 -17  70 CALM      30.44F
ELBOW LAKE     FAIR     -13 -18  81 SW3       30.39F
MORRIS MN      FAIR     -11 -18  70 W6        30.40S WCI -25
STAPLES        PTCLDY   -22 -27  76 CALM      30.35F
WHEATON        PTCLDY   -15 -18  84 SW5       30.43F WCI -27
$$
  *****  WEATHER ELSEWHERE ACROSS MINNESOTA  *****

CITY           SKY/WX    TMP DP  RH WIND       PRES   REMARKS
DULUTH         PTCLDY   -11 -17  75 NW7       30.30F WCI -26
INTRNTL FALLS  CLEAR    -21 -26  77 SW6       30.31S WCI -36
ELY            CLEAR    -26 -33  68 CALM      30.28F
CLOQUET        PTCLDY   -15 -20  76 W8        30.33S WCI -32
BRAINERD       PTCLDY   -25 -30  78 S3        30.37F
HIBBING        PTCLDY   -26 -33  69 NW3       30.30F
ALEXANDRIA     PTCLDY   -12 -16  82 W6        30.36F WCI -26
SAINT CLOUD    PTCLDY   -10 -14  82 NW5       30.41F WCI -22
MINNEAPOLIS    CLEAR     -5 -12  72 W5        30.44F WCI -16
$$

  *****  WEATHER ACROSS SOUTH DAKOTA  *****

CITY           SKY/WX    TMP DP  RH WIND       PRES   REMARKS
SIOUX FALLS    CLEAR     -9 -15  75 CALM      30.42F
BROOKINGS      NOT AVBL
WATERTOWN      PTCLDY   -14 -19  79 S3        30.35F
HURON          MOCLDY    -8 -14  74 S5        30.43F WCI -19
SISSETON       NOT AVBL
ABERDEEN       PTCLDY   -18 -24  74 S7        30.41F WCI -35
MITCHELL       CLEAR     -6 -10  83 CALM      30.45F
PIERRE         MOCLDY    -6 -10  83 SE8       30.33F WCI -21
MOBRIDGE       CLEAR     -1  -8  72 SE8       30.27F WCI -15
RAPID CITY     PTCLDY     4  -1  80 S5        30.16F WCI  -5
$$

  *****  SOME WEATHER IN NEARBY STATES *****

CITY           SKY/WX    TMP DP  RH WIND       PRES   REMARKS
GLASGOW MT     MOCLDY    12   1  61 E8        30.01F WCI   0
GREAT FALLS MT CLEAR     26  13  57 SW12      30.06R WCI  16
CHEYENNE WY    CLEAR     18   1  47 W10       30.10F WCI   6
SCOTTSBLUFF NE PTCLDY     5   0  79 N6        30.20F WCI  -6
OMAHA NE       CLEAR      6  -3  66 CALM      30.50F
DES MOINES IA  PTCLDY     5  -5  63 N9        30.47F WCI  -9
DAVENPORT IA   CLEAR      0  -8  69 NW7       30.42S WCI -13
CHICAGO IL     CLOUDY     8  -6  52 N9        30.36R WCI  -5
EAU CLAIRE WI  CLEAR     -8 -16  67 CALM      30.41R
LA CROSSE WI   CLEAR     -2 -11  65 CALM      30.44R
$$

  *****  SOME NATIONAL WEATHER *****

CITY           SKY/WX    TMP DP  RH WIND       PRES   REMARKS
LA GUARDIA NY  LGT SNOW  34  28  80 NW14      30.00R WCI  24
RALEIGH NC     MOCLDY    64  58  80 SW10      29.86S
ATLANTA GA     LGT RAIN  67  64  90 SW10G17   29.88R
NEW ORLEANS LA MOCLDY    71  67  87 SW7       29.91R
OKLAHOMA CITY  PTCLDY    14   9  80 NW8       30.46R WCI   3
ALBUQUERQUE NM CLEAR     25  18  74 N6        30.33R WCI  18
SALT LAKE CITY CLEAR     29  17  61 S9        30.36S WCI  20
LOS ANGELES CA PTCLDY    55  38  52 N6        30.17S
BOISE ID       CLEAR     29  16  58 SE9       30.33S WCI  20
SEATTLE WA     MOCLDY    40  26  57 CALM      30.31R
$$

*** WEATHER ACROSS MANITOBA...SASKATCHEWAN AND ONTARIO ***
                ***ONTARIO***

CITY           SKY/WX    TMP DP  RH WIND       PRES   REMARKS
GERALDTON      CLEAR    -17 -22  76 SW7       30.18S WCI -33
THUNDER BAY    CLEAR    -24 -29  76 W3        30.34R
SIOUX LOOKOUT  CLEAR    -18 -24  76 S5        30.21F WCI -31
TORONTO        PTCLDY     5  -6  61 NW12      30.26R WCI -11
BIG TROUT LK   PTCLDY   -13 -18  77 W8        30.03S WCI -30
PICKLE LAKE    NOT AVBL
DRYDEN         CLEAR    -15 -20  76 SW8       30.22F WCI -32
KENORA         CLEAR    -17 -22  76 S7        30.23F WCI -33
$$
                *** MANITOBA***

CITY           SKY/WX    TMP DP  RH WIND       PRES   REMARKS
BRANDON        CLEAR    -20 -26  76 W5        30.22F WCI -33
DAUPHIN        CLEAR     -8 -18  59 W12       30.17F WCI -27
ISLAND LAKE    CLEAR    -15 -22  70 SW6       30.08F WCI -29
PILOT MOUND      N/A    -20 -26  76 S7          N/A  WCI -37
THE PAS        CLEAR    -15 -22  70 S7        30.05F WCI -31
THOMPSON       NOT AVBL
WINNIPEG       CLEAR    -11 -18  70 S8        30.29F WCI -28
LYNN LAKE      CLEAR    -15 -20  76 SW6       29.84F WCI -29
CHURCHILL      PTCLDY   -26 -31  75 W7        29.93F WCI -44
GILLAM         CLEAR    -18 -24  76 SW7       29.97F WCI -35
$$
                ***SASKATCHEWAN***

CITY           SKY/WX    TMP DP  RH WIND       PRES   REMARKS
ESTEVAN        CLEAR     -9 -15  77 S3        30.10F
KINDERSLEY     CLEAR      1  -4  78 S8        29.94F WCI -12
LLOYDMINSTER   CLEAR     10   3  72 W15       29.86F WCI  -6
PRINCE ALBERT  CLOUDY    -4 -11  71 SW7       29.97F WCI -18
REGINA         PTCLDY   -13 -20  70 SE13      30.03F WCI -34


USA.gov is the U.S. government's official web portal to all federal, state and local government web resources and services.